STARLINK-34332, 64213

Orbit data source: Space-Track

STARLINK-34332, 64213 is a payload satellite owned by SpaceX/Seattle (US) in LEO that was launched on Sat, 31 May 2025 UTC via an FALCON 9 launch vehicle from the Air Force Western Test Range (AFWTR). Payload-class satellites include a variety of spacecraft equipped with specific instruments for various scientific and technological missions. These include communications satellites like Starlink; space stations such as the ISS; scientific satellites like the Hubble; Earth observation satellites from companies like Planet Labs, Umbra, and HawkEye 360; GPS; miniature CubeSats for education and research; and military/defense satellites.

Loading next visibility...
Identifier
64213, 2025-117L
Orbit
LEO
Last TLE update
5 hours ago
Origin
Manufacturer
SpaceX/Seattle
Mission
Operational Commercial Communications
Bus & Motor
STARLINK V2MO, Unknown motor
Mass
575 kg wet, ~530 kg dry
Launch date (UTC)
2025-05-31 (2 months ago)
Launch vehicle
FALCON 9
Launch site
Air Force Western Test Range (AFWTR)
Object type
Payload
Rocket body
Debris
Shape & HBR
Box + 1 Pan, 14.5 m
Radar Cross Section
41.120 m², Medium (>0.1 m² and < 1m²)

Expand to show TLE details & history

TLE from 5 hours ago
0 STARLINK-34332
1 64213U 25117L   25211.53966338  .00070797  00000-0  17606-2 0  9998
2 64213  53.1601 352.8834 0001233  42.3570 317.7530 15.39670192  9465
Epoch: 2025-07-30T12:57Z
TLE epoch observation values (Epoch: 2025-07-30T12:57:06.916Z)
Latitude
0.00001°
Longitude
-149.81284°
Altitude
447.364 km
Speed
7.645 km/s
True Right ascension
23h 31m 32s
True Declination
0° 00' 00"
Sunlit
Object was in full shadow at epoch
Visualization orbit readout
Latitude
8.9326°
Longitude
-144.01536°
Altitude
446.471 km
Speed
7.647 km/s
Apparent Right ascension
21h 59m 54s
Apparent Declination
-17° 28' 05"
Sunlit
Object is in full shadow
Visualization observer readout
Local Sidereal Time
07:14:23
Azimuth
289.963° WNW
Elevation
-47.866°
Doppler factor
1
Orbital elements
Apogee altitude
448.183 km
Perigee altitude
446.5 km
Semi-major axis
6,825.478 km
Eccentricity
0.00012
Inclination
53.1601°
RAAN
352.8834°
Arg. of periapsis
42.357°
True anomaly
317.7435°
Mean anomaly
317.753°
Eccentric anomaly
317.74825°
Mean motion
3.84896 °/min
Orbital period
93.53 mins
BSTAR
0.0017606
Loading maneuver chart data...
Loading SW <> Apogee altitude chart data...
Loading historical data...
Loading historical data...
Loading historical data...
Loading historical data...
Loading historical data...
Loading historical data...
Loading historical data...
|